Weather History for Ohio State University, OH

Change the Weather History Date:

Friday, January 3, 2014

  Actual Average Record
Temperature  
Mean Temperature 4 °F -  
Max Temperature 10 °F 36 °F 60 °F (2004)
Min Temperature -2 °F 23 °F -2 °F (2014)
Degree Days  
Heating Degree Days 61    
Moisture  
Dew Point -3 °F    
Average Humidity 66    
Maximum Humidity 79    
Minimum Humidity 51    
Precipitation  
Precipitation 0.00 in - - ()
Sea Level Pressure  
Sea Level Pressure 30.39 in    
Wind  
Wind Speed 10 mph (West)    
Max Wind Speed 16 mph    
Max Gust Speed 26 mph    
Visibility 10 miles    
Events Snow    
Averages and records for this station are not official NWS values.
T = Trace of Precipitation, MM = Missing Value Source: NWS Daily Summary

Daily Weather History Graph

Daily Weather History Graph

Search for Another Location

Airport:

Trip Planner

Search our weather history database for the weather conditions in past years. The results will help you decide how hot, cold, wet, or windy it might be!

Date:

Astronomy

Jan. 03, 2014 Rise Set
Actual Time 7:54 AM EST 5:19 PM EST
Civil Twilight 7:24 AM EST 5:49 PM EST
Nautical Twilight 6:50 AM EST 6:23 PM EST
Astronomical Twilight 6:17 AM EST 6:56 PM EST
Moon 9:19 AM EST (1/3) 8:27 PM EST (1/3)
Length of Visible Light 10h 25m
Length of Day
9h 24m
Waxing Crescent, 8% of the Moon is Illuminated
Jan 3
Waxing Crescent
Jan 7
First Quarter
Jan 15
Full
Jan 24
Last Quarter
Jan 30
New

Hourly Weather History & Observations

Time (EST) Temp. Windchill Dew Point Humidity Pressure Visibility Wind Dir Wind Speed Gust Speed Precip Events Conditions
12:15 AM 8.6 °F -8.9 °F 3.2 °F 79% 30.17 in 7.0 mi NW 16.1 mph 26.5 mph 0.00 in Snow Light Snow
12:39 AM 8.6 °F -7.7 °F 1.4 °F 73% 30.18 in 9.0 mi NW 13.8 mph 26.5 mph 0.00 in   Overcast
12:53 AM 8.1 °F -9.0 °F 1.9 °F 76% 30.25 in 10.0 mi NW 15.0 mph 21.9 mph 0.00 in   Overcast
1:53 AM 6.1 °F -12.2 °F -0.0 °F 76% 30.29 in 10.0 mi NNW 16.1 mph 24.2 mph 0.00 in   Mostly Cloudy
2:29 AM 6.8 °F -8.6 °F -0.4 °F 72% 30.26 in 10.0 mi NNW 11.5 mph 19.6 mph 0.00 in   Scattered Clouds
2:53 AM 5.0 °F -10.8 °F -0.9 °F 76% 30.32 in 10.0 mi NNW 11.5 mph - 0.00 in   Partly Cloudy
3:53 AM 3.9 °F -10.4 °F -2.9 °F 73% 30.37 in 10.0 mi NW 9.2 mph - N/A   Partly Cloudy
4:53 AM 1.9 °F -11.8 °F -5.1 °F 72% 30.39 in 10.0 mi NNW 8.1 mph - N/A   Clear
5:53 AM -0.9 °F -14.1 °F -7.1 °F 75% 30.41 in 10.0 mi NW 6.9 mph - N/A   Clear
6:53 AM -0.0 °F -15.3 °F -7.1 °F 72% 30.43 in 10.0 mi NW 9.2 mph - N/A   Clear
7:53 AM -2.0 °F -13.9 °F -8.0 °F 76% 30.46 in 10.0 mi NW 5.8 mph - N/A   Clear
8:53 AM -0.0 °F -14.2 °F -8.0 °F 69% 30.50 in 10.0 mi NW 8.1 mph - N/A   Clear
9:53 AM 1.9 °F -7.6 °F -6.0 °F 69% 30.51 in 10.0 mi NW 4.6 mph - N/A   Clear
10:53 AM 5.0 °F - -4.0 °F 66% 30.51 in 10.0 mi Calm Calm - N/A   Clear
11:53 AM 7.0 °F - -2.9 °F 64% 30.49 in 10.0 mi Calm Calm - N/A   Clear
12:53 PM 9.0 °F - -2.0 °F 61% 30.48 in 10.0 mi Calm Calm - N/A   Clear
1:53 PM 10.0 °F -0.9 °F -2.0 °F 58% 30.47 in 10.0 mi WSW 6.9 mph - N/A   Clear
2:53 PM 10.9 °F 4.7 °F -2.9 °F 54% 30.46 in 10.0 mi WSW 3.5 mph - N/A   Clear
3:53 PM 10.9 °F -0.8 °F -4.0 °F 51% 30.46 in 10.0 mi South 8.1 mph - N/A   Clear
4:53 PM 10.0 °F -0.9 °F -5.1 °F 51% 30.47 in 10.0 mi South 6.9 mph - N/A   Clear
5:53 PM 9.0 °F -3.2 °F -4.0 °F 56% 30.46 in 10.0 mi South 8.1 mph - N/A   Clear
6:53 PM 9.0 °F -0.9 °F -4.0 °F 56% 30.44 in 10.0 mi South 5.8 mph - N/A   Mostly Cloudy
7:53 PM 10.0 °F -3.7 °F -2.9 °F 56% 30.41 in 10.0 mi South 10.4 mph - N/A   Overcast
8:53 PM 10.0 °F -2.9 °F -0.9 °F 61% 30.39 in 10.0 mi SSE 9.2 mph - N/A   Mostly Cloudy
9:53 PM 9.0 °F -2.2 °F -0.9 °F 64% 30.38 in 10.0 mi SSE 6.9 mph - N/A   Clear
10:53 PM 9.0 °F -3.2 °F -0.9 °F 64% 30.35 in 10.0 mi SSE 8.1 mph - N/A   Clear
11:53 PM 10.0 °F -2.9 °F -0.0 °F 64% 30.32 in 10.0 mi SSE 9.2 mph - N/A   Clear